Japanese version Home page |
Updated on March 12, 2009 |
Profile
|
Orbital ElementsThe following orbital elements are taken from MPC 61702: Epoch 2007 Mar. 1.0 TT = JDT 2454160.5 T 2007 Mar. 5.8704 TT MPC q 3.886339 (2000.0) P Q z -0.000868 Peri. 261.4933 +0.0263141 +0.9796701 +/-0.000001 Node 344.7964 +0.9046947 -0.1079709 e 1.003372 Incl. 130.6796 -0.4252471 -0.1690820 From 285 observations 2005 Mar. 3-2007 Dec. 30, mean residual 0".6.
|
Finding Charts
|
Magnitudes Graphm1 = 7.0 + 5 log d + 10.0 log r
|
The orbital elements are published at the MPC Ephemerides and Orbital Elements.
|